This demonstration page uses our WeatherBlox Daily Observations layout. Learn more.

Hourly Observations for August 11, 2020

Temp ( °F °C ) Dew Point ( °F °C ) Humidity (%) Winds ( mph kmh ) Pressure ( in mb ) Visibility ( mi km ) Precip ( " mm )
12:54 am 00:54 Clear 67 19.4 61 16.1 81 81 NE 3 6 29.97 1015 10 16.0934 0 0
1:54 am 01:54 Clear 65 18.3 61 16.1 87 87 N 7 11 29.97 1015 10 16.0934 0 0
2:54 am 02:54 Mostly Clear 66 18.9 61 16.1 84 84 Calm 29.96 1015 10 16.0934 0 0
3:54 am 03:54 Partly Cloudy 64 17.8 61 16.1 90 90 N 8 13 29.96 1015 10 16.0934 0 0
4:54 am 04:54 Cloudy 65 18.3 61 16.1 87 87 Calm 29.98 1015 10 16.0934 0 0
5:54 am 05:54 Mostly Cloudy 65 18.3 61 16.1 87 87 N 5 7 29.98 1015 10 16.0934 0 0
6:54 am 06:54 Cloudy 66 18.9 61 16.1 84 84 N 3 6 29.99 1016 9 14.48406 0 0
7:54 am 07:54 Cloudy 68 20 61 16.1 78 78 E 6 9 30 1016 9 14.48406 0 0
8:54 am 08:54 Mostly Sunny 71 21.7 61 16.1 71 71 E 10 17 29.99 1016 9 14.48406 0 0
9:54 am 09:54 Sunny 74 23.3 63 17.2 69 69 undefined N/A 29.98 1015 9 14.48406 0 0
10:54 am 10:54 Sunny 77 25 66 18.9 69 69 SE 8 13 29.98 1015 9 14.48406 0 0
11:54 am 11:54 Sunny 81 27.2 69 20.6 67 67 VRB 3 6 29.98 1015 9 14.48406 0 0
12:54 pm 12:54 Mostly Sunny 84 28.9 71 21.7 65 65 SE 8 13 29.96 1015 9 14.48406 0 0
1:45 pm 13:45 Mostly Cloudy 85 29.4 71 21.7 63 63 S 10 17 29.92 1013 9 14.48406 0 0
1:54 pm 13:54 Mostly Cloudy 84 28.9 72 22.2 67 67 SSE 9 15 29.96 1014 9 14.48406 0 0
2:54 pm 14:54 Mostly Cloudy 85 29.4 71 21.7 63 63 ESE 6 9 29.94 1014 9 14.48406 0 0
3:12 pm 15:12 Partly Cloudy 84 28.9 70 21.1 63 63 SSE 8 13 29.9 1013 9 14.48406 0 0
3:54 pm 15:54 Partly Cloudy 87 30.6 71 21.7 59 59 S 9 15 29.92 1013 9 14.48406 0 0
4:54 pm 16:54 Sunny 88 31.1 71 21.7 57 57 SE 8 13 29.91 1013 9 14.48406 0 0
5:54 pm 17:54 Sunny 86 30 70 21.1 59 59 SSE 9 15 29.91 1013 9 14.48406 0 0
6:54 pm 18:54 Partly Cloudy 85 29.4 72 22.2 65 65 SE 13 20 29.89 1012 9 14.48406 0 0
7:54 pm 19:54 Sunny 83 28.3 73 22.8 72 72 SE 13 20 29.87 1012 9 14.48406 0 0
8:54 pm 20:54 Clear 81 27.2 73 22.8 77 77 SE 10 17 29.89 1012 10 16.0934 0 0
9:54 pm 21:54 Clear 80 26.7 73 22.8 79 79 SE 13 20 29.91 1013 10 16.0934 0 0
10:54 pm 22:54 Clear 79 26.1 73 22.8 82 82 SSE 13 20 29.93 1014 10 16.0934 0 0
11:54 pm 23:54 Clear 76 24.4 72 22.2 88 88 SSE 6 9 29.96 1014 10 16.0934 0 0

Powered by AerisWeather